| time (UTC) | temp C | wind direction | speed KPH | gust KPH | rain 1hr cm | rain 24hr cm | rain mn cm | humidity % | barometer mb |
| 20260502195332 | 16 | 8 | 0.0 | 0.0 | 0.00 | 0.00 | 0.00 | 64 | 1017.1 |
| 20260502194831 | 16 | 8 | 0.0 | 0.0 | 0.00 | 0.00 | 0.00 | 64 | 1017.0 |
| 20260502194331 | 16 | 8 | 0.0 | 0.0 | 0.00 | 0.00 | 0.00 | 64 | 1017.0 |
| 20260502193831 | 16 | 8 | 0.0 | 0.0 | 0.00 | 0.00 | 0.00 | 63 | 1017.0 |
| 20260502193332 | 16 | 8 | 0.0 | 0.0 | 0.00 | 0.00 | 0.00 | 62 | 1017.0 |
| 20260502192825 | 16 | 8 | 0.0 | 0.0 | 0.00 | 0.00 | 0.00 | 60 | 1017.0 |
| 20260502192322 | 16 | 8 | 0.0 | 0.0 | 0.00 | 0.00 | 0.00 | 59 | 1017.0 |
| 20260502191310 | 17 | 8 | 0.0 | 0.0 | 0.00 | 0.00 | 0.00 | 59 | 1017.0 |
| 20260502190805 | 17 | 8 | 0.0 | 0.0 | 0.00 | 0.00 | 0.00 | 57 | 1017.0 |
| 20260502185804 | 18 | 8 | 0.0 | 0.0 | 0.00 | 0.00 | 0.00 | 57 | 1016.9 |
| 20260502185305 | 18 | 8 | 0.0 | 0.0 | 0.00 | 0.00 | 0.00 | 57 | 1016.9 |
| 20260502184804 | 18 | 8 | 0.0 | 0.0 | 0.00 | 0.00 | 0.00 | 55 | 1016.7 |
| 20260502182305 | 20 | 8 | 0.0 | 0.0 | 0.00 | 0.00 | 0.00 | 51 | 1016.7 |
| 20260502181303 | 20 | 8 | 0.0 | 0.0 | 0.00 | 0.00 | 0.00 | 48 | 1016.7 |
| 20260502180802 | 21 | 8 | 0.0 | 0.0 | 0.00 | 0.00 | 0.00 | 45 | 1016.6 |
| 20260502170243 | 25 | 8 | 0.0 | 0.0 | 0.00 | 0.00 | 0.00 | 34 | 1016.7 |
| 20260502164232 | 26 | 22 | 0.0 | 0.0 | 0.00 | 0.00 | 0.00 | 31 | 1016.7 |
| 20260502163732 | 26 | 22 | 0.0 | 0.0 | 0.00 | 0.00 | 0.00 | 31 | 1016.8 |
| 20260502163232 | 26 | 22 | 0.0 | 0.0 | 0.00 | 0.00 | 0.00 | 31 | 1016.8 |
| 20260502162231 | 26 | 22 | 0.0 | 0.0 | 0.00 | 0.00 | 0.00 | 29 | 1016.8 |
| 20260502161730 | 26 | 22 | 0.0 | 0.0 | 0.00 | 0.00 | 0.00 | 31 | 1016.9 |
| 20260502161227 | 26 | 22 | 0.0 | 0.0 | 0.00 | 0.00 | 0.00 | 30 | 1017.0 |
| 20260502160725 | 26 | 22 | 0.0 | 9.7 | 0.00 | 0.00 | 0.00 | 31 | 1017.1 |
| 20260502160224 | 26 | 22 | 0.0 | 9.7 | 0.00 | 0.00 | 0.00 | 30 | 1017.0 |
| 20260502151635 | 26 | 25 | 0.0 | 0.0 | 0.00 | 0.00 | 0.00 | 30 | 1017.5 |
| 20260502151133 | 26 | 25 | 0.0 | 6.4 | 0.00 | 0.00 | 0.00 | 30 | 1017.4 |
| 20260502150624 | 27 | 25 | 1.6 | 6.4 | 0.00 | 0.00 | 0.00 | 29 | 1017.6 |
| 20260502150126 | 27 | 19 | 0.0 | 3.2 | 0.00 | 0.00 | 0.00 | 30 | 1017.5 |
| 20260502130537 | 25 | 20 | 1.6 | 11.3 | 0.00 | 0.00 | 0.00 | 35 | 1019.4 |
| 20260502123032 | 26 | 345 | 0.0 | 6.4 | 0.00 | 0.00 | 0.00 | 38 | 1019.9 |
| 20260502122533 | 24 | 40 | 1.6 | 6.4 | 0.00 | 0.00 | 0.00 | 42 | 1020.0 |
| 20260502122029 | 24 | 236 | 0.0 | 1.6 | 0.00 | 0.00 | 0.00 | 40 | 1020.1 |
| 20260502121525 | 25 | 303 | 0.0 | 8.0 | 0.00 | 0.00 | 0.00 | 39 | 1020.1 |
| 20260502121022 | 25 | 303 | 0.0 | 8.0 | 0.00 | 0.00 | 0.00 | 40 | 1020.2 |
| 20260502120513 | 24 | 145 | 0.0 | 8.0 | 0.00 | 0.00 | 0.00 | 42 | 1020.3 |
| 20260502115504 | 25 | 49 | 1.6 | 4.8 | 0.00 | 0.00 | 0.00 | 38 | 1020.4 |
| 20260502115005 | 23 | 95 | 0.0 | 4.8 | 0.00 | 0.00 | 0.00 | 41 | 1020.6 |
| 20260502114503 | 24 | 212 | 0.0 | 0.0 | 0.00 | 0.00 | 0.00 | 41 | 1020.6 |
| 20260502113006 | 23 | 62 | 0.0 | 6.4 | 0.00 | 0.00 | 0.00 | 45 | 1020.8 |
| 20260502112502 | 23 | 240 | 0.0 | 4.8 | 0.00 | 0.00 | 0.00 | 44 | 1020.9 |
| 20260502111959 | 23 | 235 | 0.0 | 0.0 | 0.00 | 0.00 | 0.00 | 45 | 1021.1 |
| 20260502111451 | 22 | 235 | 0.0 | 0.0 | 0.00 | 0.00 | 0.00 | 46 | 1021.1 |
| 20260502110943 | 22 | 235 | 0.0 | 6.4 | 0.00 | 0.00 | 0.00 | 46 | 1021.2 |
| 20260502110439 | 22 | 235 | 0.0 | 6.4 | 0.00 | 0.00 | 0.00 | 46 | 1021.4 |
| 20260502105936 | 22 | 224 | 0.0 | 0.0 | 0.00 | 0.00 | 0.00 | 47 | 1021.4 |
| 20260502104930 | 21 | 224 | 3.2 | 6.4 | 0.00 | 0.00 | 0.00 | 48 | 1021.5 |
| 20260502104427 | 21 | 197 | 0.0 | 4.8 | 0.00 | 0.00 | 0.00 | 48 | 1021.5 |
| 20260502103924 | 21 | 197 | 0.0 | 6.4 | 0.00 | 0.00 | 0.00 | 49 | 1021.6 |
| 20260502103420 | 21 | 241 | 0.0 | 8.0 | 0.00 | 0.00 | 0.00 | 49 | 1021.7 |
| 20260502102916 | 21 | 249 | 3.2 | 8.0 | 0.00 | 0.00 | 0.00 | 50 | 1021.8 |
| 20260502102413 | 21 | 242 | 0.0 | 6.4 | 0.00 | 0.00 | 0.00 | 49 | 1021.8 |
| 20260502101404 | 21 | 270 | 1.6 | 11.3 | 0.00 | 0.00 | 0.00 | 51 | 1022.0 |
| 20260502100907 | 20 | 251 | 4.8 | 11.3 | 0.00 | 0.00 | 0.00 | 49 | 1022.1 |
| 20260502100406 | 21 | 238 | 0.0 | 9.7 | 0.00 | 0.00 | 0.00 | 50 | 1022.2 |
| 20260502091341 | 19 | 244 | 6.4 | 14.5 | 0.00 | 0.00 | 0.00 | 52 | 1022.6 |
| 20260502090833 | 19 | 244 | 1.6 | 9.7 | 0.00 | 0.00 | 0.00 | 51 | 1022.7 |
| 20260502071308 | 13 | 16 | 0.0 | 0.0 | 0.00 | 0.00 | 0.00 | 67 | 1023.5 |
| 20260502070305 | 12 | 16 | 0.0 | 0.0 | 0.00 | 0.00 | 0.00 | 67 | 1023.5 |
| 20260502065306 | 12 | 16 | 0.0 | 0.0 | 0.00 | 0.00 | 0.00 | 71 | 1023.5 |
| 20260502064804 | 11 | 16 | 0.0 | 0.0 | 0.00 | 0.00 | 0.00 | 71 | 1023.6 |
| 20260502064305 | 11 | 16 | 0.0 | 0.0 | 0.00 | 0.00 | 0.00 | 72 | 1023.5 |
| 20260502063805 | 11 | 16 | 0.0 | 0.0 | 0.00 | 0.00 | 0.00 | 73 | 1023.5 |
| 20260502063307 | 10 | 16 | 0.0 | 0.0 | 0.00 | 0.00 | 0.00 | 73 | 1023.6 |
| 20260502062805 | 10 | 16 | 0.0 | 0.0 | 0.00 | 0.00 | 0.00 | 73 | 1023.6 |
| 20260502062307 | 10 | 16 | 0.0 | 0.0 | 0.00 | 0.00 | 0.00 | 75 | 1023.6 |
| 20260502061806 | 10 | 16 | 0.0 | 0.0 | 0.00 | 0.00 | 0.00 | 76 | 1023.7 |
| 20260502061307 | 9 | 16 | 0.0 | 0.0 | 0.00 | 0.00 | 0.00 | 77 | 1023.7 |
| 20260502060805 | 9 | 16 | 0.0 | 0.0 | 0.00 | 0.00 | 0.00 | 78 | 1023.5 |
| 20260502060305 | 9 | 16 | 0.0 | 0.0 | 0.00 | 0.00 | 0.00 | 78 | 1023.5 |
| 20260502055804 | 8 | 16 | 0.0 | 0.0 | 0.00 | 0.00 | 0.00 | 79 | 1023.6 |
| 20260502055306 | 8 | 16 | 0.0 | 0.0 | 0.00 | 0.00 | 0.00 | 79 | 1023.6 |
| 20260502054305 | 8 | 16 | 0.0 | 0.0 | 0.00 | 0.00 | 0.00 | 81 | 1023.6 |
| 20260502053303 | 7 | 16 | 0.0 | 0.0 | 0.00 | 0.00 | 0.00 | 82 | 1023.7 |
| 20260502052800 | 7 | 16 | 0.0 | 0.0 | 0.00 | 0.00 | 0.00 | 83 | 1023.7 |
| 20260502052256 | 7 | 16 | 0.0 | 0.0 | 0.00 | 0.00 | 0.00 | 83 | 1023.7 |
| 20260502051753 | 7 | 16 | 0.0 | 0.0 | 0.00 | 0.00 | 0.00 | 84 | 1023.6 |
| 20260502051253 | 7 | 16 | 0.0 | 0.0 | 0.00 | 0.00 | 0.00 | 84 | 1023.6 |
| 20260502050246 | 6 | 16 | 0.0 | 0.0 | 0.00 | 0.00 | 0.00 | 84 | 1023.5 |
| 20260502045235 | 6 | 16 | 0.0 | 0.0 | 0.00 | 0.00 | 0.00 | 84 | 1023.4 |
| 20260502044731 | 6 | 16 | 0.0 | 0.0 | 0.00 | 0.00 | 0.00 | 84 | 1023.4 |
| 20260502043731 | 6 | 16 | 0.0 | 0.0 | 0.00 | 0.00 | 0.00 | 84 | 1023.4 |
| 20260502043232 | 6 | 16 | 0.0 | 0.0 | 0.00 | 0.00 | 0.00 | 84 | 1023.4 |
| 20260502042732 | 6 | 16 | 0.0 | 0.0 | 0.00 | 0.00 | 0.00 | 84 | 1023.3 |
| 20260502042231 | 6 | 16 | 0.0 | 0.0 | 0.00 | 0.00 | 0.00 | 84 | 1023.3 |
| 20260502041231 | 6 | 16 | 0.0 | 0.0 | 0.00 | 0.00 | 0.00 | 84 | 1023.4 |
| 20260502040731 | 6 | 16 | 0.0 | 0.0 | 0.00 | 0.00 | 0.00 | 83 | 1023.3 |
| 20260502040231 | 6 | 16 | 0.0 | 0.0 | 0.00 | 0.00 | 0.00 | 83 | 1023.2 |
| 20260502035733 | 6 | 16 | 0.0 | 0.0 | 0.00 | 0.00 | 0.00 | 83 | 1023.2 |
| 20260502035233 | 6 | 16 | 0.0 | 0.0 | 0.00 | 0.00 | 0.00 | 83 | 1023.3 |
| 20260502034733 | 6 | 16 | 0.0 | 0.0 | 0.00 | 0.00 | 0.00 | 84 | 1023.2 |
| 20260502034232 | 6 | 16 | 0.0 | 0.0 | 0.00 | 0.00 | 0.00 | 83 | 1023.3 |
| 20260502033731 | 6 | 16 | 0.0 | 0.0 | 0.00 | 0.00 | 0.00 | 83 | 1023.2 |
| 20260502033228 | 6 | 16 | 0.0 | 0.0 | 0.00 | 0.00 | 0.00 | 83 | 1023.3 |
| 20260502032725 | 6 | 16 | 0.0 | 0.0 | 0.00 | 0.00 | 0.00 | 82 | 1023.2 |
| 20260502032219 | 6 | 16 | 0.0 | 0.0 | 0.00 | 0.00 | 0.00 | 82 | 1023.3 |
| 20260502031714 | 6 | 16 | 0.0 | 0.0 | 0.00 | 0.00 | 0.00 | 82 | 1023.3 |
| 20260502031213 | 6 | 16 | 0.0 | 0.0 | 0.00 | 0.00 | 0.00 | 82 | 1023.2 |
| 20260502030705 | 6 | 16 | 0.0 | 0.0 | 0.00 | 0.00 | 0.00 | 82 | 1023.3 |
| 20260502030207 | 6 | 16 | 0.0 | 0.0 | 0.00 | 0.00 | 0.00 | 82 | 1023.3 |
| 20260502025703 | 6 | 16 | 0.0 | 0.0 | 0.00 | 0.00 | 0.00 | 81 | 1023.1 |
| 20260502025203 | 6 | 16 | 0.0 | 0.0 | 0.00 | 0.00 | 0.00 | 81 | 1023.3 |
| 20260502024702 | 7 | 16 | 0.0 | 0.0 | 0.00 | 0.00 | 0.00 | 81 | 1023.2 |
| 20260502023703 | 7 | 16 | 0.0 | 0.0 | 0.00 | 0.00 | 0.00 | 80 | 1023.2 |
| 20260502023205 | 7 | 16 | 0.0 | 0.0 | 0.00 | 0.00 | 0.00 | 80 | 1023.3 |
| 20260502022705 | 7 | 16 | 0.0 | 0.0 | 0.00 | 0.00 | 0.00 | 79 | 1023.3 |
| 20260502021704 | 7 | 16 | 0.0 | 0.0 | 0.00 | 0.00 | 0.00 | 79 | 1023.2 |
| 20260502021204 | 7 | 16 | 0.0 | 0.0 | 0.00 | 0.00 | 0.00 | 79 | 1023.3 |
| 20260502020703 | 7 | 16 | 0.0 | 0.0 | 0.00 | 0.00 | 0.00 | 79 | 1023.3 |
| 20260502020204 | 7 | 16 | 0.0 | 0.0 | 0.00 | 0.00 | 0.00 | 79 | 1023.2 |
| 20260502015703 | 7 | 16 | 0.0 | 0.0 | 0.00 | 0.00 | 0.00 | 79 | 1023.4 |
| 20260502015202 | 7 | 16 | 0.0 | 0.0 | 0.00 | 0.00 | 0.00 | 79 | 1023.3 |
| 20260502014701 | 7 | 16 | 0.0 | 0.0 | 0.00 | 0.00 | 0.00 | 78 | 1023.3 |
| 20260502014202 | 7 | 16 | 0.0 | 0.0 | 0.00 | 0.00 | 0.00 | 78 | 1023.3 |
| 20260502013702 | 7 | 16 | 0.0 | 0.0 | 0.00 | 0.00 | 0.00 | 78 | 1023.2 |
| 20260502013201 | 7 | 16 | 0.0 | 0.0 | 0.00 | 0.00 | 0.00 | 78 | 1023.3 |
| 20260502012658 | 8 | 16 | 0.0 | 0.0 | 0.00 | 0.00 | 0.00 | 78 | 1023.3 |
| 20260502012154 | 8 | 16 | 0.0 | 0.0 | 0.00 | 0.00 | 0.00 | 78 | 1023.4 |
| 20260502011653 | 8 | 16 | 0.0 | 0.0 | 0.00 | 0.00 | 0.00 | 78 | 1023.4 |
| 20260502011147 | 8 | 16 | 0.0 | 0.0 | 0.00 | 0.00 | 0.00 | 78 | 1023.4 |
| 20260502010639 | 8 | 16 | 0.0 | 0.0 | 0.00 | 0.00 | 0.00 | 78 | 1023.4 |
| 20260502010133 | 8 | 16 | 0.0 | 0.0 | 0.00 | 0.00 | 0.00 | 78 | 1023.3 |
| 20260502005631 | 8 | 16 | 0.0 | 0.0 | 0.00 | 0.00 | 0.00 | 78 | 1023.5 |
| 20260502005131 | 8 | 16 | 0.0 | 0.0 | 0.00 | 0.00 | 0.00 | 78 | 1023.3 |
| 20260502004630 | 8 | 16 | 0.0 | 0.0 | 0.00 | 0.00 | 0.00 | 77 | 1023.4 |
| 20260502004131 | 8 | 16 | 0.0 | 0.0 | 0.00 | 0.00 | 0.00 | 77 | 1023.4 |
| 20260502003631 | 8 | 16 | 0.0 | 0.0 | 0.00 | 0.00 | 0.00 | 77 | 1023.5 |
| 20260502003131 | 8 | 16 | 0.0 | 0.0 | 0.00 | 0.00 | 0.00 | 78 | 1023.5 |
| 20260502002631 | 8 | 16 | 0.0 | 0.0 | 0.00 | 0.00 | 0.00 | 78 | 1023.6 |
| 20260502002133 | 8 | 16 | 0.0 | 0.0 | 0.00 | 0.00 | 0.00 | 78 | 1023.4 |
| 20260502001631 | 8 | 16 | 0.0 | 0.0 | 0.00 | 0.00 | 0.00 | 78 | 1023.4 |
| 20260502000630 | 8 | 16 | 0.0 | 0.0 | 0.00 | 0.00 | 0.00 | 77 | 1023.4 |
| 20260502000127 | 8 | 16 | 0.0 | 0.0 | 0.00 | 0.00 | 0.00 | 76 | 1023.5 |
| 20260501235625 | 8 | 16 | 0.0 | 0.0 | 0.00 | 0.00 | 0.00 | 76 | 1023.5 |
| 20260501235122 | 8 | 16 | 0.0 | 0.0 | 0.00 | 0.00 | 0.00 | 74 | 1023.6 |
| 20260501234620 | 9 | 16 | 0.0 | 0.0 | 0.00 | 0.00 | 0.00 | 74 | 1023.7 |
| 20260501234116 | 9 | 16 | 0.0 | 0.0 | 0.00 | 0.00 | 0.00 | 74 | 1023.6 |
| 20260501233613 | 9 | 16 | 0.0 | 0.0 | 0.00 | 0.00 | 0.00 | 74 | 1023.5 |
| 20260501233109 | 9 | 16 | 0.0 | 0.0 | 0.00 | 0.00 | 0.00 | 74 | 1023.5 |
| 20260501232604 | 9 | 16 | 0.0 | 0.0 | 0.00 | 0.00 | 0.00 | 74 | 1023.4 |
| 20260501231101 | 10 | 16 | 0.0 | 0.0 | 0.00 | 0.00 | 0.00 | 72 | 1023.5 |
| 20260501230602 | 10 | 16 | 0.0 | 0.0 | 0.00 | 0.00 | 0.00 | 72 | 1023.4 |
| 20260501225602 | 10 | 16 | 0.0 | 0.0 | 0.00 | 0.00 | 0.00 | 72 | 1023.4 |
| 20260501225103 | 10 | 16 | 0.0 | 0.0 | 0.00 | 0.00 | 0.00 | 72 | 1023.4 |
| 20260501224602 | 10 | 16 | 0.0 | 0.0 | 0.00 | 0.00 | 0.00 | 72 | 1023.4 |
| 20260501224058 | 10 | 16 | 0.0 | 0.0 | 0.00 | 0.00 | 0.00 | 71 | 1023.4 |
| 20260501223556 | 10 | 16 | 0.0 | 0.0 | 0.00 | 0.00 | 0.00 | 71 | 1023.4 |
| 20260501223053 | 10 | 16 | 0.0 | 0.0 | 0.00 | 0.00 | 0.00 | 70 | 1023.5 |
| 20260501222550 | 10 | 16 | 0.0 | 0.0 | 0.00 | 0.00 | 0.00 | 68 | 1023.5 |
| 20260501222041 | 11 | 16 | 0.0 | 0.0 | 0.00 | 0.00 | 0.00 | 68 | 1023.4 |
| 20260501221538 | 11 | 16 | 0.0 | 0.0 | 0.00 | 0.00 | 0.00 | 68 | 1023.3 |
| 20260501221036 | 11 | 16 | 0.0 | 0.0 | 0.00 | 0.00 | 0.00 | 68 | 1023.4 |
| 20260501220533 | 11 | 16 | 0.0 | 0.0 | 0.00 | 0.00 | 0.00 | 68 | 1023.3 |
| 20260501215533 | 10 | 16 | 0.0 | 0.0 | 0.00 | 0.00 | 0.00 | 66 | 1023.3 |
| 20260501214530 | 11 | 16 | 0.0 | 0.0 | 0.00 | 0.00 | 0.00 | 66 | 1023.2 |
| 20260501214033 | 11 | 16 | 0.0 | 0.0 | 0.00 | 0.00 | 0.00 | 66 | 1023.2 |
| 20260501213022 | 11 | 16 | 0.0 | 0.0 | 0.00 | 0.00 | 0.00 | 65 | 1023.3 |
| 20260501212519 | 11 | 16 | 0.0 | 0.0 | 0.00 | 0.00 | 0.00 | 65 | 1023.3 |
| 20260501212016 | 11 | 16 | 0.0 | 0.0 | 0.00 | 0.00 | 0.00 | 65 | 1023.3 |
| 20260501211514 | 11 | 16 | 0.0 | 0.0 | 0.00 | 0.00 | 0.00 | 64 | 1023.3 |
| 20260501211005 | 11 | 16 | 0.0 | 0.0 | 0.00 | 0.00 | 0.00 | 64 | 1023.4 |
| 20260501205500 | 11 | 16 | 0.0 | 0.0 | 0.00 | 0.00 | 0.00 | 63 | 1023.3 |
| 20260501204953 | 12 | 16 | 0.0 | 0.0 | 0.00 | 0.00 | 0.00 | 61 | 1023.3 |
| 20260501204450 | 12 | 16 | 0.0 | 0.0 | 0.00 | 0.00 | 0.00 | 61 | 1023.3 |
| 20260501203936 | 12 | 16 | 0.0 | 0.0 | 0.00 | 0.00 | 0.00 | 62 | 1023.3 |
| 20260501203434 | 12 | 16 | 0.0 | 0.0 | 0.00 | 0.00 | 0.00 | 62 | 1023.2 |
| 20260501202933 | 12 | 16 | 0.0 | 0.0 | 0.00 | 0.00 | 0.00 | 61 | 1023.1 |
| 20260501202435 | 12 | 16 | 0.0 | 0.0 | 0.00 | 0.00 | 0.00 | 61 | 1023.1 |
| 20260501200926 | 12 | 16 | 0.0 | 0.0 | 0.00 | 0.00 | 0.00 | 60 | 1023.1 |